Home   Weather   Paris   Past weeks
Flag for France

Past Weather in Paris, Île-de-France, France — Yesterday and Last 2 Weeks

Now
52 °F

Drizzle. Fog.


Feels Like: 49 °F
Forecast: 59 / 51 °F
Wind: 9 mph from Northeast

Location: Villacoublay

Current Time: Oct 20, 2019 at 6:54:06 pm

Latest Report: Oct 20, 2019 at 6:00 pm


Visibility: 2 mi

Pressure: 29.71 "Hg

Humidity: 94%

Dew Point: 50 °F

Location of ParisLocation

Past Weather in Paris — Graph

°F

Paris Temperature Yesterday

Maximum temperature yesterday: 57 °F (at 3:30 pm)
Minimum temperature yesterday: 52 °F (at 8:00 am)
Average temperature yesterday: 54 °F

High & Low Weather Summary for the Past Weeks

 TemperatureHumidityPressure
High75 °F (Oct 13, 1:30 pm)100% (Oct 6, 2:00 am)30.09 "Hg (Oct 6, 2:00 am)
Low50 °F (Oct 7, 4:00 am)50% (Oct 13, 2:00 pm)29.65 "Hg (Oct 14, 4:30 pm)
Average57 °F85%29.86 "Hg
* Reported Oct 5 5:00 pm — Oct 20 5:30 pm, Paris. Weather by CustomWeather, © 2019

Note: Actual official high and low records may vary slightly from our data, if they occured in-between our weather recording intervals... More about our weather records

Advertising

Paris Weather History for the Previous 24 Hours

Scroll right to see more
 ConditionsComfort  
Time TempWeatherWind HumidityBarometerVisibility
5:30 pm
Sun, Oct 20
52 °FDrizzle. Fog.8 mph94%29.71 "Hg3 mi
5:00 pm54 °FOvercast.12 mph82%29.71 "HgN/A
4:30 pm54 °FOvercast.10 mph82%29.71 "HgN/A
4:00 pm54 °FMostly cloudy.13 mph77%29.71 "HgN/A
3:30 pm54 °FOvercast.12 mph82%29.71 "HgN/A
3:00 pm54 °FOvercast.13 mph82%29.71 "HgN/A
2:30 pm54 °FOvercast.12 mph82%29.71 "HgN/A
2:00 pm54 °FBroken clouds.15 mph82%29.68 "HgN/A
1:30 pm54 °FBroken clouds.15 mph88%29.71 "HgN/A
1:00 pm52 °FLight rain. Broken clouds.14 mph94%29.68 "HgN/A
12:30 pm52 °FLight rain. Overcast.8 mph94%29.71 "HgN/A
12:00 pm52 °FLight rain. Mostly cloudy.7 mph94%29.71 "HgN/A
11:30 am52 °FLight rain. Overcast.8 mph88%29.71 "HgN/A
11:00 am52 °FLight rain. Partly sunny.10 mph88%29.71 "HgN/A
10:30 am52 °FPartly sunny.12 mph94%29.68 "HgN/A
10:00 am52 °FLight rain. Low clouds.10 mph94%29.68 "HgN/A
9:30 am52 °FLight rain. Partly sunny.9 mph94%29.68 "Hg5 mi
9:00 am50 °FLight rain. Broken clouds.9 mph100%29.68 "HgN/A
8:30 am50 °FRain. Partly sunny.7 mph100%29.71 "Hg4 mi
8:00 am50 °FLight rain. Clear.8 mph94%29.68 "HgN/A
7:30 am52 °FLight rain. Mostly cloudy.8 mph94%29.68 "HgN/A
7:00 am52 °FLight rain. Fog.7 mph100%29.71 "Hg3 mi
6:30 am52 °FLight rain. Mostly cloudy.6 mph100%29.71 "Hg4 mi
6:00 am52 °FLight rain. Fog.6 mph100%29.68 "Hg3 mi
5:30 am52 °FLight rain. Partly cloudy.5 mph100%29.68 "Hg4 mi
5:00 am52 °FLight rain. Mostly cloudy.2 mph100%29.71 "Hg4 mi
4:30 am52 °FClear.3 mph100%29.68 "Hg10 mi
4:00 am52 °FLight rain. Clear.5 mph100%29.68 "HgN/A
3:30 am52 °FClear.2 mph94%29.71 "Hg10 mi
3:00 am52 °FClear.2 mph94%29.71 "Hg10 mi
2:30 am52 °FClear.2 mph94%29.71 "Hg10 mi
2:00 am52 °FMostly cloudy.1 mph100%29.71 "HgN/A
1:30 am52 °FClear.2 mph100%29.71 "Hg5 mi
1:00 am52 °FClear.1 mph100%29.71 "Hg4 mi
12:30 am52 °FLight rain. Overcast.2 mph100%29.71 "Hg4 mi
12:00 am54 °FLight rain. Fog.3 mph94%29.71 "Hg3 mi
11:30 pm
Sat, Oct 19
54 °FLight rain. Fog.5 mph94%29.74 "Hg3 mi
11:00 pm54 °FLight rain. Clear.6 mph94%29.74 "Hg4 mi
10:30 pm54 °FLight rain. Clear.3 mph94%29.71 "HgN/A
10:00 pm54 °FCool.3 mph94%29.71 "HgN/A
9:30 pm54 °FCool.2 mph94%29.71 "HgN/A
9:00 pm54 °FCool.2 mph94%29.68 "HgN/A
8:30 pm52 °FClear.1 mph94%29.68 "Hg10 mi
8:00 pm54 °FClear.2 mph88%29.68 "Hg10 mi
7:30 pm54 °FClear.No wind82%29.68 "Hg10 mi
7:00 pm55 °FClear.2 mph77%29.68 "Hg10 mi
6:30 pm55 °FSunny.3 mph77%29.68 "Hg10 mi
6:00 pm57 °FMostly cloudy.5 mph72%29.68 "HgN/A
Weather by CustomWeather, © 2019

See weather overview